Meteo Giornale » Osservazioni meteo Austria » Vienna-Schwechat

ore: 19:20 - Osservazioni Meteo Vienna-Schwechat
Lat. 48° 7' N Lon. 16° 34' E Alt. 183 metri s.l.m.

sereno Europe/Vienna

31 °C

Sereno

Temp. 24 Ore

17 °C

34 °C

Sud

22.2 Km/h

Dew point 15 °C

Umidità 37 %

Visibilità  10 Km

Il sole sorge alle ore 05:51

Il sole tramonta alle ore 20:03

Data e Ora Cielo e Fenomeni T °C DP °C Um. % Pres. hPa Vis. km Vento km/h
Oggi h: 19:20 sereno Sereno 31 15 37 1013 10 S 22.2
Oggi h: 18:50 sereno Sereno 32 15 35 1013 10 S 25.9
Oggi h: 18:20 sereno Sereno 32 14 33 1013 10 S 25.9
Oggi h: 17:50 sereno Sereno 33 14 31 1014 10 S 25.9
Oggi h: 17:20 sereno Sereno 33 14 31 1014 10 S 24
Oggi h: 16:50 sereno Sereno 34 14 30 1014 10 S 25.9
Oggi h: 16:20 sereno Sereno 34 14 30 1014 10 S 22.2
Oggi h: 15:50 sereno Sereno 33 14 31 1015 10 SE 22.2
Oggi h: 15:20 sereno Sereno 33 16 36 1015 10 S/SE 18.5
Oggi h: 14:50 sereno Sereno 32 16 38 1016 10 SE 14.8
Oggi h: 14:20 sereno Sereno 31 15 37 1016 10 S/SE 16.7
Oggi h: 13:50 sereno Sereno 31 15 37 1017 10 SE 13
Oggi h: 13:20 sereno Sereno 31 14 35 1017 10 N 11.1
Oggi h: 12:50 sereno Sereno 30 15 40 1017 10 N 5.5
Oggi h: 12:20 sereno Sereno 29 17 48 1018 10 NE 11.1
Oggi h: 11:50 sereno Sereno 28 17 51 1018 10 E/SE 9.3
Oggi h: 11:20 sereno Sereno 27 15 47 1018 10 N 7.4
Oggi h: 10:50 sereno Sereno 27 15 47 1018 10 N 5.5
Oggi h: 10:20 sereno Sereno 26 15 50 1019 10 N 5.5
Oggi h: 09:50 sereno Sereno 25 15 53 1019 10 SE 7.4
Oggi h: 09:20 sereno Sereno 24 15 57 1019 10 S 7.4
Oggi h: 08:50 sereno Sereno 23 15 60 1019 10 S 7.4
Oggi h: 08:20 sereno Sereno 22 17 73 1019 10 N 5.5
Oggi h: 07:50 sereno Sereno 21 17 77 1019 10 N 1.8
Oggi h: 07:20 sereno Sereno 20 17 82 1018 10 N 1.8
Oggi h: 06:50 sereno Sereno 19 17 88 1018 10 N 5.5
Oggi h: 06:20 sereno Sereno 17 15 88 1018 10 S/SE 7.4
Oggi h: 05:50 sereno Sereno 17 15 88 1018 10 N 5.5
Oggi h: 05:20 sereno Sereno 18 15 82 1018 10 N 3.7
Oggi h: 04:50 sereno Sereno 18 15 82 1018 10 N 3.7
Oggi h: 04:20 sereno Sereno 19 15 77 1018 10 N 5.5
Oggi h: 03:50 sereno Sereno 21 14 64 1018 10 SE 7.4
Oggi h: 03:20 sereno Sereno 20 15 72 1018 10 N 3.7
Oggi h: 02:50 sereno Sereno 21 16 73 1018 10 O/SO 7.4
Oggi h: 02:20 sereno Sereno 21 16 73 1018 10 N 3.7
Oggi h: 01:50 sereno Sereno 21 16 73 1018 10 N 3.7
Oggi h: 01:20 sereno Sereno 21 15 68 1018 10 N 3.7
Oggi h: 00:50 sereno Sereno 21 15 68 1018 10 E/SE 11.1
Oggi h: 00:20 sereno Sereno 21 15 68 1018 10 S/SE 7.4
Ieri h: 23:50 sereno Sereno 22 14 60 1018 10 S 7.4
Ieri h: 23:20 sereno Sereno 22 15 64 1018 10 O 9.3
Ieri h: 22:50 sereno Sereno 22 15 64 1018 10 S/SE 9.3
Ieri h: 22:20 sereno Sereno 22 14 60 1018 10 S 9.3
Ieri h: 21:50 sereno Sereno 24 14 53 1018 10 S/SE 7.4
Ieri h: 21:20 sereno Sereno 24 13 50 1018 10 S/SE 9.3
Ieri h: 20:50 sereno Sereno 25 12 44 1018 10 N 3.7
Ieri h: 20:20 sereno Sereno 25 13 47 1018 10 N 1.8
Ieri h: 19:50 sereno Sereno 27 12 39 1018 10 N 3.7